Total_Precipitation_Accumulation
0.08 0.08 0.08 0.09 0.10 0.13 0.16 0.14 0.13 0.07 0.04 0.03 0.03 0.04 0.04 0.03 0.03 0.07 0.08 0.08 0.08 0.10 0.14 0.14 0.12 0.10 0.10 0.10 0.10 0.10 0.10 0.09 0.09 0.08 0.07 0.06 0.05 0.05 0.05 0.05 0.05 0.07 0.09
0.08 0.10 0.12 0.13 0.10 0.10 0.12 0.13 0.14 0.10 0.06 0.04 0.05 0.06 0.07 0.05 0.05 0.09 0.11 0.11 0.11 0.12 0.16 0.18 0.18 0.17 0.15 0.15 0.16 0.15 0.15 0.14 0.14 0.15 0.14 0.12 0.10 0.09 0.09 0.08 0.07 0.06 0.07
0.10 0.12 0.16 0.19 0.17 0.14 0.13 0.14 0.14 0.15 0.13 0.10 0.11 0.11 0.10 0.10 0.11 0.12 0.11 0.14 0.16 0.18 0.22 0.21 0.19 0.17 0.16 0.17 0.21 0.23 0.22 0.22 0.22 0.23 0.22 0.20 0.18 0.15 0.14 0.13 0.12 0.11 0.10
0.16 0.20 0.26 0.29 0.32 0.29 0.28 0.30 0.28 0.25 0.24 0.21 0.19 0.18 0.17 0.16 0.16 0.15 0.14 0.13 0.12 0.13 0.14 0.15 0.15 0.16 0.16 0.17 0.20 0.22 0.25 0.25 0.25 0.24 0.25 0.26 0.25 0.22 0.20 0.19 0.18 0.17 0.15
0.31 0.39 0.48 0.53 0.55 0.54 0.52 0.47 0.47 0.43 0.41 0.38 0.30 0.25 0.21 0.19 0.19 0.16 0.13 0.13 0.12 0.11 0.10 0.10 0.12 0.13 0.13 0.15 0.16 0.18 0.20 0.24 0.25 0.25 0.25 0.29 0.31 0.28 0.24 0.22 0.21 0.19 0.17
0.61 0.71 0.78 0.85 0.83 0.79 0.74 0.70 0.64 0.55 0.47 0.41 0.32 0.25 0.21 0.18 0.16 0.13 0.10 0.08 0.07 0.07 0.06 0.05 0.06 0.07 0.11 0.12 0.13 0.13 0.15 0.21 0.27 0.28 0.25 0.28 0.33 0.31 0.26 0.24 0.24 0.23 0.21
1.18 1.17 1.13 1.11 1.02 0.94 0.86 0.74 0.64 0.56 0.50 0.41 0.32 0.23 0.14 0.10 0.08 0.08 0.06 0.05 0.04 0.04 0.03 0.02 0.02 0.02 0.04 0.08 0.11 0.11 0.12 0.17 0.24 0.26 0.24 0.28 0.32 0.31 0.28 0.26 0.25 0.24 0.25
1.78 1.63 1.47 1.26 1.11 1.00 0.91 0.81 0.70 0.60 0.48 0.36 0.29 0.24 0.15 0.09 0.05 0.03 0.03 0.03 0.02 0.02 0.02 0.02 0.02 0.02 0.02 0.02 0.04 0.09 0.12 0.09 0.10 0.16 0.23 0.29 0.30 0.29 0.29 0.29 0.28 0.27 0.27
2.03 1.87 1.60 1.37 1.25 1.13 1.03 0.92 0.75 0.61 0.46 0.31 0.22 0.20 0.17 0.10 0.05 0.03 0.02 0.01 0.01 0.01 0.01 0.01 0.01 0.01 0.01 0.01 0.02 0.03 0.07 0.10 0.08 0.08 0.17 0.26 0.27 0.26 0.28 0.30 0.31 0.33 0.35
1.79 1.60 1.46 1.35 1.25 1.13 1.00 0.81 0.61 0.46 0.34 0.24 0.16 0.12 0.10 0.07 0.06 0.04 0.01 0.01 0.01 0.01 0.01 0.01 0.01 0.01 0.01 0.01 0.02 0.03 0.05 0.07 0.08 0.08 0.11 0.17 0.21 0.21 0.21 0.23 0.26 0.30 0.34
1.52 1.32 1.18 1.08 0.97 0.82 0.65 0.49 0.36 0.29 0.22 0.17 0.12 0.09 0.07 0.05 0.05 0.06 0.04 0.02 0.01 0.01 0.01 0.01 0.01 0.01 0.01 0.02 0.03 0.04 0.06 0.08 0.09 0.10 0.10 0.11 0.14 0.18 0.21 0.24 0.27 0.32 0.35
1.16 0.97 0.77 0.63 0.51 0.39 0.29 0.22 0.17 0.14 0.13 0.11 0.08 0.07 0.06 0.06 0.06 0.07 0.07 0.04 0.02 0.01 0.01 0.01 0.01 0.01 0.01 0.02 0.03 0.06 0.10 0.13 0.14 0.14 0.13 0.11 0.11 0.12 0.16 0.22 0.28 0.34 0.41
0.74 0.55 0.39 0.31 0.25 0.20 0.15 0.12 0.10 0.08 0.07 0.07 0.06 0.06 0.05 0.05 0.05 0.07 0.08 0.07 0.05 0.02 0.01 0.01 0.01 0.01 0.01 0.01 0.04 0.08 0.15 0.13 0.13 0.12 0.11 0.10 0.09 0.08 0.09 0.12 0.17 0.24 0.33
0.35 0.27 0.21 0.16 0.13 0.09 0.07 0.05 0.04 0.04 0.04 0.05 0.04 0.06 0.06 0.05 0.06 0.08 0.12 0.14 0.13 0.07 0.02 0.01 0.00 0.00 0.01 0.04 0.11 0.14 0.20 0.12 0.10 0.08 0.06 0.05 0.05 0.05 0.06 0.08 0.10 0.13 0.18
0.18 0.14 0.11 0.08 0.06 0.05 0.05 0.05 0.04 0.04 0.05 0.06 0.06 0.06 0.07 0.07 0.08 0.09 0.11 0.14 0.19 0.17 0.09 0.03 0.02 0.03 0.06 0.14 0.24 0.28 0.27 0.19 0.13 0.09 0.07 0.05 0.05 0.05 0.06 0.06 0.07 0.08 0.10
0.09 0.08 0.07 0.06 0.05 0.05 0.04 0.05 0.05 0.06 0.07 0.08 0.09 0.09 0.09 0.09 0.09 0.09 0.10 0.12 0.18 0.25 0.21 0.07 0.03 0.05 0.09 0.14 0.28 0.33 0.36 0.32 0.23 0.15 0.10 0.07 0.06 0.07 0.07 0.08 0.09 0.10 0.13
0.06 0.06 0.06 0.06 0.06 0.05 0.05 0.06 0.07 0.08 0.08 0.07 0.07 0.08 0.08 0.08 0.10 0.09 0.10 0.11 0.13 0.19 0.23 0.11 0.05 0.06 0.12 0.19 0.27 0.30 0.31 0.30 0.26 0.24 0.17 0.13 0.12 0.10 0.10 0.10 0.12 0.16 0.20
0.06 0.06 0.07 0.06 0.05 0.05 0.06 0.07 0.07 0.07 0.07 0.07 0.07 0.07 0.07 0.08 0.09 0.08 0.09 0.10 0.12 0.18 0.26 0.22 0.11 0.07 0.10 0.17 0.23 0.25 0.23 0.22 0.24 0.28 0.21 0.15 0.13 0.13 0.17 0.14 0.12 0.15 0.21
0.07 0.07 0.06 0.06 0.06 0.06 0.07 0.07 0.07 0.06 0.06 0.06 0.07 0.08 0.08 0.09 0.08 0.08 0.11 0.12 0.14 0.18 0.26 0.28 0.18 0.12 0.15 0.21 0.31 0.31 0.27 0.32 0.29 0.25 0.21 0.16 0.14 0.16 0.39 0.45 0.22 0.18 0.21
0.08 0.08 0.07 0.07 0.07 0.07 0.06 0.04 0.03 0.04 0.04 0.05 0.06 0.08 0.10 0.10 0.11 0.14 0.15 0.17 0.22 0.25 0.25 0.28 0.22 0.16 0.18 0.23 0.33 0.41 0.39 0.36 0.34 0.22 0.24 0.22 0.20 0.26 0.63 1.19 0.66 0.34 0.28
0.09 0.09 0.08 0.07 0.06 0.04 0.02 0.01 0.01 0.01 0.02 0.03 0.05 0.08 0.10 0.11 0.15 0.17 0.18 0.21 0.27 0.32 0.33 0.35 0.30 0.25 0.22 0.29 0.38 0.43 0.42 0.40 0.34 0.26 0.32 0.28 0.43 0.75 1.26 1.92 1.49 0.85 0.61
0.11 0.08 0.05 0.03 0.03 0.02 0.01 0.01 0.01 0.01 0.02 0.04 0.07 0.09 0.07 0.06 0.08 0.08 0.13 0.20 0.29 0.36 0.42 0.46 0.43 0.37 0.29 0.33 0.42 0.48 0.49 0.48 0.38 0.25 0.30 0.33 0.62 1.33 2.02 2.44 2.06 1.30 0.97
0.06 0.05 0.04 0.03 0.03 0.03 0.00 0.00 0.00 0.00 0.03 0.06 0.10 0.09 0.07 0.06 0.09 0.13 0.14 0.16 0.21 0.29 0.43 0.56 0.55 0.43 0.39 0.41 0.56 0.63 0.56 0.55 0.50 0.35 0.36 0.41 0.73 1.57 1.98 2.26 2.10 1.44 1.14
0.05 0.04 0.03 0.03 0.04 0.03 0.00 0.00 0.00 0.01 0.04 0.07 0.08 0.09 0.12 0.13 0.13 0.13 0.13 0.18 0.23 0.29 0.39 0.48 0.51 0.46 0.46 0.48 0.56 0.60 0.56 0.55 0.43 0.32 0.40 0.53 0.83 1.47 1.64 1.76 1.90 1.50 1.22
0.04 0.03 0.02 0.03 0.05 0.05 0.01 0.00 0.00 0.02 0.03 0.04 0.06 0.08 0.11 0.14 0.12 0.12 0.18 0.26 0.30 0.38 0.52 0.69 0.70 0.64 0.64 0.63 0.54 0.50 0.55 0.60 0.52 0.34 0.37 0.54 0.78 1.15 1.30 1.40 1.47 1.44 1.32
0.04 0.03 0.03 0.04 0.06 0.07 0.02 0.00 0.01 0.02 0.04 0.04 0.05 0.08 0.10 0.10 0.11 0.14 0.21 0.33 0.45 0.52 0.72 0.91 0.85 0.77 0.69 0.67 0.62 0.54 0.61 0.71 0.66 0.50 0.40 0.50 0.65 0.84 1.08 1.20 1.13 1.10 1.17